This demonstration page uses our WeatherBlox Daily Observations layout. Learn more.

Left ArrowRight Arrow

Hourly Observations for May 17, 2015

Temp ( °F °C ) Dew Point ( °F °C ) Humidity (%) Winds ( mph kmh ) Pressure ( in mb ) Visibility ( mi km ) Precip ( " mm )
12:53 am 00:53 Cloudy with Rain 70 21.1 68 20 93 93 Calm 30.12 1020 4 6 0.03 0.76
1:53 am 01:53 Cloudy 70 21.1 68 20 93 93 Calm 30.11 1020 10 16 0.00 0.03
2:53 am 02:53 Cloudy 69 20.6 68 20 96 96 Calm 30.10 1019 10 16 0.00 0.00
3:53 am 03:53 Cloudy 69 20.6 68 20 96 96 Calm 30.09 1019 9 14 0.00 0.00
4:53 am 04:53 Mostly Cloudy 69 20.6 67 19.4 93 93 Calm 30.11 1020 8 13 0.00 0.00
5:53 am 05:53 Partly Cloudy 69 20.6 67 19.4 93 93 Calm 30.12 1020 7 11 0.00 0.00
6:53 am 06:53 Cloudy with Mist and Fog 68 20 67 19.4 96 96 E 3 6 30.14 1021 5 8 0.00 0.00
7:53 am 07:53 Mostly Cloudy 71 21.7 68 20 90 90 SSW 3 6 30.15 1021 8 13 0.00 0.00
8:53 am 08:53 Cloudy 73 22.8 68 20 84 84 SSW 6 9 30.14 1021 10 16 0.00 0.00
9:53 am 09:53 Mostly Sunny 76 24.4 68 20 77 77 VRB 6 9 30.13 1020 10 16 0.00 0.00
10:28 am 10:28 Mostly Cloudy 77 25 68 20 74 74 SW 7 11 30.12 1020 10 16 0.00 0.00
10:53 am 10:53 Mostly Cloudy 78 25.6 68 20 71 71 WSW 8 13 30.13 1020 10 16 0.00 0.00
11:53 am 11:53 Mostly Cloudy 80 26.7 67 19.4 64 64 VRB 5 7 30.13 1020 10 16 0.00 0.00
12:30 pm 12:30 Mostly Cloudy 80 26.7 68 20 67 67 VRB 7 11 30.12 1020 10 16 0.00 0.00
12:53 pm 12:53 Mostly Cloudy 81 27.2 68 20 65 65 VRB 6 9 30.13 1020 10 16 0.00 0.00
1:49 pm 13:49 Mostly Cloudy with Rain 75 24 70 21 83 83 SSW 8 13 30.12 1020 2 2 0.06 1.52
1:53 pm 13:53 Mostly Cloudy with Heavy Rain 74 23.3 70 21.1 88 88 WSW 5 7 30.13 1020 1 2 0.07 1.78
2:00 pm 14:00 Cloudy with Light Rain 75 23.9 71 21.7 88 88 SW 7 11 30.12 1020 3 5 0.00 0.03
2:53 pm 14:53 Partly Cloudy with Nearby Thunderstorms 80 26.7 70 21.1 71 71 VRB 5 7 30.11 1020 10 16 0.00 0.03
3:02 pm 15:02 Mostly Cloudy with Thunderstorms 79 26.1 70 21.1 74 74 SSW 6 9 30.09 1019 10 16 0.00 0.00
3:21 pm 15:21 Mostly Cloudy with Light Rain 73 22.8 71 21.7 94 94 VRB 5 7 30.09 1019 2 3 0.06 1.52
3:30 pm 15:30 Cloudy with Light Rain 74 23.3 72 22.2 94 94 Calm 30.09 1019 3 4 0.06 1.52
3:37 pm 15:37 Mostly Cloudy 76 24.4 72 22.2 88 88 Calm 30.09 1019 10 16 0.06 1.52
3:53 pm 15:53 Partly Cloudy with Nearby Thunderstorms 80 26.7 73 22.8 79 79 undefined N/A 30.08 1019 10 16 0.06 1.52
4:07 pm 16:07 Sunny 81 27.2 71 21.7 72 72 VRB 5 7 30.06 1018 10 16 0.00 0.03
4:53 pm 16:53 Mostly Sunny 82 27.8 68 20 63 63 SW 10 17 30.08 1019 10 16 0.00 0.03
5:53 pm 17:53 Mostly Sunny 82 27.8 68 20 63 63 SSW 6 9 30.06 1018 10 16 0.00 0.00
6:53 pm 18:53 Mostly Sunny 82 27.8 67 19.4 60 60 VRB 6 9 30.04 1017 10 16 0.00 0.00
7:53 pm 19:53 Sunny 80 26.7 66 18.9 62 62 VRB 6 9 30.04 1017 10 16 0.00 0.00
8:53 pm 20:53 Clear 79 26.1 67 19.4 67 67 VRB 3 6 30.06 1018 10 16 0.00 0.00
9:53 pm 21:53 Partly Cloudy 78 25.6 66 18.9 67 67 VRB 3 6 30.08 1019 10 16 0.00 0.00
10:53 pm 22:53 Clear 76 24.4 68 20 77 77 VRB 3 6 30.08 1019 10 16 0.00 0.00
11:53 pm 23:53 Clear 75 23.9 69 20.6 82 82 SSW 3 6 30.09 1019 10 16 0.00 0.00

Powered by AerisWeather